[[{"header":{"parameterUnit":"m.s-1","parameterCategory":1,"la1":30.2991,"la2":30.254,"lo1":-89.0895,"lo2":-89.0444,"dy":0.0017,"dx":0.0017,"nx":28,"ny":28,"refTime":"2023-11-08T03:00:00:Z","depth":0,"parameterNumber":2,"parameterNumberName":"U-component_of_WINDS"},"data":[0,0,0,0,0,0,0,0,0,0,0,0,0,0,0,0,0,0,0,0,0,0,0,0,0,0,0,0,0,0,0,0,0,0,0,0,0,0,0,0,0,0,0,0,0,0,0,0,0,0,0,0,0,0,0,0,0,0,-0.2986,-0.2985,0,-0.2934,-0.2933,-0.2932,-0.293,-0.2931,-0.2931,-0.2932,-0.2877,-0.2875,-0.2873,0,0,0,0,0,0,0,0,0,0,0,0,0,-0.3082,-0.3081,-0.2986,-0.2985,-0.2985,-0.2934,-0.2933,-0.2932,-0.293,-0.2931,-0.2932,-0.2932,-0.2877,-0.2875,-0.2872,0,0,0,0,0,0,0,0,0,0,0,0,0,-0.3036,-0.308,-0.2986,-0.2977,-0.2976,-0.2934,-0.2933,-0.2932,-0.293,-0.2931,-0.2932,-0.2933,-0.2878,-0.2875,-0.2872,-0.2834,0,0,-0.2863,-0.2861,0,0,0,0,0,0,0,0,-0.3039,-0.3033,-0.2979,-0.2978,-0.2976,-0.2939,-0.2947,-0.2899,-0.293,-0.2947,-0.2932,-0.2933,-0.2897,-0.2892,-0.288,-0.2832,-0.2829,-0.2862,-0.286,-0.2859,-0.2858,0,0,0,0,0,0,0,-0.3042,-0.3035,-0.2965,-0.2979,-0.2977,-0.2976,-0.297,-0.2938,-0.2917,-0.2946,-0.2946,-0.294,-0.2896,-0.2883,-0.2879,-0.2828,-0.2862,-0.286,-0.2858,-0.2857,-0.2745,-0.2744,0,0,0,0,0,0,-0.3047,-0.3038,-0.2967,-0.2964,-0.3011,-0.2973,-0.2967,-0.295,-0.2918,-0.2914,-0.2939,-0.294,-0.2888,-0.2882,-0.2877,-0.2829,-0.2859,-0.2856,-0.2854,-0.2746,-0.2745,-0.2743,0,0,0,0,0,0,-0.3049,-0.3041,-0.2969,-0.3001,-0.2991,-0.297,-0.2952,-0.2949,-0.2936,-0.2912,-0.2909,-0.2929,-0.2888,-0.2881,-0.2845,-0.2827,-0.2855,-0.2852,-0.2747,-0.2745,-0.2744,-0.2734,0,0,0,0,0,0,-0.3052,-0.3042,-0.3027,-0.3,-0.299,-0.2938,-0.2951,-0.2947,-0.2931,-0.2931,-0.2903,-0.2899,-0.2889,-0.2849,-0.2842,-0.2823,-0.285,-0.2749,-0.2746,-0.2744,-0.2736,-0.2732,-0.2729,0,0,0,0,0,-0.3056,-0.3027,-0.3027,-0.3018,-0.2972,-0.2937,-0.2931,-0.292,-0.2929,-0.2914,-0.2899,-0.29,-0.2831,-0.2845,-0.2837,-0.2817,-0.275,-0.2747,-0.2745,-0.2737,-0.2733,-0.2729,0,0,0,0,0,0,-0.3052,-0.3023,-0.3023,-0.2984,-0.2963,-0.2937,-0.2918,-0.2916,-0.2892,-0.2893,-0.2881,-0.2875,-0.2838,-0.2824,-0.2841,-0.2778,-0.2791,-0.2787,-0.2788,-0.2784,-0.2781,-0.2784,-0.2847,0,0,0,0,0,-0.3047,-0.3022,-0.2998,-0.2966,-0.2956,-0.2939,-0.2923,-0.2917,-0.2894,-0.2885,-0.2867,-0.2845,-0.2818,-0.2801,-0.2775,-0.2734,-0.2727,-0.2717,-0.2714,-0.2711,-0.2707,-0.2683,-0.2677,-0.2735,-0.2735,-0.2735,0,0,-0.3036,-0.3017,-0.3002,-0.2965,-0.2948,-0.2921,-0.2931,-0.2903,-0.2883,-0.2881,-0.2845,-0.2831,-0.2805,-0.2766,-0.2748,-0.2754,-0.2689,-0.2708,-0.2706,-0.2703,-0.268,-0.2674,-0.2669,-0.2733,-0.2734,-0.2734,0,0,-0.3001,-0.2985,-0.2957,-0.2939,-0.2914,-0.2902,-0.2896,-0.2869,-0.286,-0.2824,-0.2822,-0.2798,-0.2752,-0.2733,-0.2718,-0.2676,-0.2675,-0.2668,-0.265,-0.2627,-0.2623,-0.2618,-0.2602,-0.2597,-0.2665,-0.2665,-0.2665,0,-0.299,-0.2951,-0.2942,-0.2913,-0.2897,-0.2895,-0.2865,-0.2849,-0.2815,-0.2803,-0.2811,-0.2753,-0.2735,-0.2691,-0.2681,-0.2669,-0.266,-0.2671,-0.2624,-0.262,-0.2616,-0.26,-0.2594,-0.2664,-0.2664,-0.2664,-0.2664,0,-0.2938,-0.2911,-0.2891,-0.2859,-0.284,-0.2812,-0.2797,-0.2779,-0.2775,-0.2763,-0.2725,-0.2705,-0.2674,-0.2663,-0.2659,-0.2618,-0.2622,-0.2627,-0.2639,-0.261,-0.2595,-0.2589,-0.2663,-0.2663,-0.2663,-0.2663,0,0,-0.2899,-0.2863,-0.2855,-0.284,-0.2812,-0.279,-0.2761,-0.2732,-0.2716,-0.2693,-0.2667,-0.2629,-0.2633,-0.2615,-0.2609,-0.2589,-0.2555,-0.2596,-0.2595,-0.2587,-0.2507,-0.2502,-0.2496,-0.2555,-0.2554,-0.2553,-0.2509,0,-0.286,-0.2809,-0.2799,-0.2754,-0.2728,-0.2725,-0.27,-0.2679,-0.2667,-0.2642,-0.2629,-0.2601,-0.261,-0.2599,-0.2579,-0.2563,-0.2539,-0.2567,-0.2529,-0.2528,-0.2534,-0.2488,-0.2483,-0.2442,-0.2503,-0.2502,-0.2501,0,-0.2808,-0.2784,-0.2736,-0.271,-0.2699,-0.2676,-0.2648,-0.2625,-0.2601,-0.2594,-0.2574,-0.257,-0.2538,-0.2553,-0.2509,-0.2528,-0.2512,-0.2502,-0.25,-0.2495,-0.2511,-0.2479,-0.2429,-0.2422,-0.2492,-0.2493,-0.2494,0,-0.2782,-0.2738,-0.2703,-0.2691,-0.266,-0.2644,-0.263,-0.2608,-0.259,-0.2566,-0.2554,-0.2526,-0.251,-0.2488,-0.2475,-0.2488,-0.2431,-0.2446,-0.2423,-0.2423,-0.241,-0.241,-0.2354,-0.2403,-0.2403,-0.2403,-0.2403,0,-0.2739,-0.2709,-0.2691,-0.2669,-0.2636,-0.2625,-0.2592,-0.2579,-0.2558,-0.2533,-0.253,-0.2507,-0.2493,-0.2467,-0.2457,-0.2421,-0.2414,-0.2406,-0.2404,-0.2405,-0.2406,-0.2394,-0.2395,-0.2401,-0.2402,-0.2402,-0.2402,0,-0.2703,-0.269,-0.2652,-0.2626,-0.2619,-0.2595,-0.2573,-0.2551,-0.254,-0.2508,-0.25,-0.2481,-0.2451,-0.2437,-0.2399,-0.2393,-0.2351,-0.2351,-0.2359,-0.2357,-0.2335,-0.2336,-0.2267,-0.2257,-0.2314,-0.2313,-0.2313,0,-0.2675,-0.2652,-0.2624,-0.2608,-0.2594,-0.2567,-0.2549,-0.2538,-0.252,-0.2491,-0.2472,-0.2442,-0.2417,-0.2368,-0.235,-0.2321,-0.2319,-0.2297,-0.2315,-0.2317,-0.2317,-0.2317,-0.2314,-0.2293,-0.2293,-0.2292,-0.2292,0,-0.2627,-0.2622,-0.2596,-0.2569,-0.2548,-0.2525,-0.2503,-0.249,-0.2475,-0.2454,-0.2423,-0.2404,-0.2365,-0.2334,-0.2304,-0.2289,-0.2287,-0.2287,-0.228,-0.228,-0.2285,-0.228,-0.2348,-0.2288,-0.2288,-0.2289,-0.2289,-0.2289,-0.2593,-0.2572,-0.2549,-0.2521,-0.2503,-0.2482,-0.2461,-0.2446,-0.2421,-0.2388,-0.2384,-0.235,-0.2326,-0.2285,-0.2269,-0.2242,-0.2247,-0.2238,-0.2235,-0.2232,-0.223,-0.2291,-0.2237,-0.2237,-0.2237,-0.2237,-0.2237,0,-0.2543,-0.2528,-0.2502,-0.2471,-0.2449,-0.2451,-0.2426,-0.2407,-0.2378,-0.2356,-0.2331,-0.2295,-0.2265,-0.2245,-0.2215,-0.2197,-0.2195,-0.2189,-0.2189,-0.2185,-0.2228,-0.2236,-0.2191,-0.2191,-0.2191,-0.2191,-0.2191,-0.2191,-0.2514,-0.2478,-0.247,-0.2425,-0.241,-0.2377,-0.2363,-0.2344,-0.2326,-0.2286,-0.2261,-0.2249,-0.2227,-0.2195,-0.2167,-0.2162,-0.215,-0.2143,-0.2138,-0.2178,-0.2183,-0.2187,-0.2195,-0.2142,-0.2141,-0.2098,-0.2098,-0.2097]},{"header":{"parameterUnit":"m.s-1","parameterCategory":1,"la1":30.2991,"la2":30.254,"lo1":-89.0895,"lo2":-89.0444,"dy":0.0017,"dx":0.0017,"nx":28,"ny":28,"refTime":"2023-11-08T03:00:00:Z","depth":0,"parameterNumber":3,"parameterNumberName":"V-component_of_WINDS"},"data":[0,0,0,0,0,0,0,0,0,0,0,0,0,0,0,0,0,0,0,0,0,0,0,0,0,0,0,0,0,0,0,0,0,0,0,0,0,0,0,0,0,0,0,0,0,0,0,0,0,0,0,0,0,0,0,0,0,0,0.2884,0.2884,0,0.2865,0.2864,0.2864,0.2811,0.281,0.2809,0.2807,0.279,0.279,0.2791,0,0,0,0,0,0,0,0,0,0,0,0,0,0.2878,0.2879,0.2884,0.2884,0.2884,0.2865,0.2864,0.2864,0.2811,0.281,0.2808,0.2807,0.279,0.279,0.2791,0,0,0,0,0,0,0,0,0,0,0,0,0,0.2872,0.2879,0.2884,0.2855,0.2852,0.2865,0.2864,0.2864,0.2811,0.281,0.2808,0.2806,0.2789,0.279,0.2791,0.2831,0,0,0.2794,0.2794,0,0,0,0,0,0,0,0,0.2873,0.2872,0.286,0.2857,0.2854,0.2838,0.2856,0.2853,0.2812,0.2827,0.2807,0.2805,0.2807,0.2807,0.2807,0.283,0.283,0.2794,0.2794,0.2795,0.2795,0,0,0,0,0,0,0,0.2873,0.2873,0.2877,0.286,0.2856,0.2844,0.2841,0.2855,0.2827,0.2826,0.2822,0.282,0.2806,0.2806,0.2806,0.2829,0.2794,0.2795,0.2795,0.2796,0.2885,0.2887,0,0,0,0,0,0,0.2877,0.2874,0.2877,0.2876,0.2859,0.2845,0.2842,0.2845,0.2827,0.2822,0.2821,0.2817,0.2805,0.2805,0.2805,0.2852,0.2795,0.2796,0.2796,0.2883,0.2886,0.2888,0,0,0,0,0,0,0.2877,0.2878,0.2878,0.2874,0.2873,0.2847,0.2851,0.2846,0.2846,0.2824,0.2819,0.2827,0.2804,0.2804,0.2825,0.285,0.2796,0.2797,0.2881,0.2884,0.2887,0.2944,0,0,0,0,0,0,0.2877,0.2879,0.2893,0.2874,0.2873,0.2898,0.2853,0.2847,0.2848,0.2842,0.2828,0.2824,0.2803,0.2824,0.2826,0.285,0.2798,0.2879,0.2883,0.2886,0.294,0.2949,0.2956,0,0,0,0,0,0.2877,0.2911,0.2894,0.2895,0.2891,0.2899,0.2899,0.2873,0.285,0.2865,0.285,0.2824,0.2847,0.2827,0.2828,0.2854,0.2877,0.2882,0.2886,0.2937,0.2947,0.2956,0,0,0,0,0,0,0.2934,0.2908,0.2889,0.2917,0.2911,0.289,0.2908,0.2885,0.2886,0.2881,0.285,0.2848,0.2873,0.2865,0.2843,0.2892,0.2858,0.2863,0.2896,0.2906,0.2914,0.2916,0.2798,0,0,0,0,0,0.2949,0.2957,0.2934,0.2961,0.2959,0.2934,0.2937,0.2918,0.2911,0.2908,0.2895,0.2889,0.2895,0.29,0.2904,0.2938,0.2935,0.2957,0.2965,0.2971,0.2976,0.2994,0.3004,0.2901,0.2901,0.2901,0,0,0.2981,0.2968,0.2976,0.2972,0.2965,0.2975,0.2932,0.2945,0.2952,0.291,0.2929,0.2919,0.2911,0.2939,0.2951,0.2934,0.3004,0.2977,0.2982,0.2983,0.3,0.3009,0.3018,0.2904,0.2904,0.2903,0,0,0.3046,0.3036,0.3058,0.3051,0.3041,0.3024,0.3029,0.3012,0.3004,0.3022,0.2991,0.3,0.301,0.3006,0.3005,0.3068,0.3044,0.307,0.3112,0.3131,0.3139,0.3146,0.3169,0.3178,0.3075,0.3075,0.3075,0,0.3088,0.3101,0.3072,0.3086,0.3086,0.3047,0.3069,0.3065,0.3057,0.3058,0.3038,0.3051,0.3043,0.3069,0.3085,0.3085,0.3091,0.3072,0.314,0.3147,0.3153,0.3175,0.3183,0.3078,0.3078,0.3077,0.3077,0,0.3153,0.3163,0.3182,0.3174,0.3176,0.3194,0.3169,0.3174,0.3155,0.3141,0.3161,0.3149,0.315,0.3155,0.3137,0.318,0.3169,0.3145,0.3111,0.3166,0.3186,0.3194,0.3083,0.3082,0.3081,0.308,0,0,0.3253,0.3229,0.3236,0.3233,0.3218,0.3225,0.3242,0.3243,0.3249,0.3244,0.3258,0.3268,0.3245,0.3245,0.3225,0.3241,0.3293,0.3215,0.3214,0.3231,0.334,0.3359,0.3369,0.3276,0.3278,0.3279,0.3341,0,0.3314,0.3341,0.3316,0.3348,0.3357,0.332,0.3335,0.3328,0.3315,0.3321,0.3307,0.3315,0.3284,0.3283,0.3297,0.3283,0.3314,0.3278,0.329,0.3291,0.3294,0.338,0.34,0.3459,0.3349,0.335,0.3351,0,0.339,0.3388,0.3421,0.3405,0.3408,0.3421,0.342,0.3426,0.3418,0.3407,0.3406,0.3383,0.3399,0.3364,0.3387,0.3363,0.3366,0.336,0.3362,0.3363,0.3325,0.3384,0.3477,0.3487,0.3363,0.3362,0.3361,0,0.346,0.3467,0.3487,0.3485,0.3466,0.3477,0.3469,0.3459,0.3461,0.346,0.3462,0.3463,0.3464,0.3466,0.3443,0.342,0.3469,0.3433,0.3462,0.3463,0.3475,0.3474,0.3571,0.3475,0.3475,0.3475,0.3475,0,0.3532,0.3554,0.3519,0.3532,0.3555,0.3526,0.355,0.3539,0.353,0.3541,0.3509,0.352,0.3489,0.3497,0.348,0.3501,0.3502,0.3495,0.349,0.3498,0.3499,0.35,0.3496,0.3477,0.3477,0.3476,0.3476,0,0.3616,0.3592,0.3613,0.3593,0.3588,0.3607,0.359,0.3602,0.3586,0.36,0.3602,0.3578,0.3586,0.3563,0.3568,0.3556,0.3588,0.3576,0.3591,0.3587,0.3618,0.3616,0.372,0.3732,0.3628,0.3629,0.363,0,0.3663,0.3679,0.3661,0.3665,0.366,0.3667,0.3669,0.3641,0.3644,0.3636,0.3649,0.3653,0.3656,0.367,0.3654,0.3657,0.3646,0.3682,0.3646,0.3654,0.3647,0.3647,0.3649,0.369,0.3691,0.3692,0.3693,0,0.3751,0.3739,0.3742,0.3742,0.3745,0.3743,0.374,0.3745,0.3715,0.3721,0.3728,0.3729,0.3733,0.3739,0.3739,0.3732,0.3708,0.3704,0.3711,0.372,0.3728,0.3725,0.3612,0.3702,0.3701,0.37,0.37,0.3699,0.3818,0.3831,0.382,0.3825,0.3819,0.3817,0.3827,0.3812,0.3817,0.3818,0.3801,0.3812,0.3804,0.3801,0.3796,0.3805,0.3788,0.3799,0.3801,0.3805,0.381,0.3726,0.3805,0.3804,0.3804,0.3804,0.3804,0,0.3905,0.3896,0.3901,0.3897,0.3901,0.3877,0.3871,0.3877,0.3887,0.388,0.3883,0.3892,0.3897,0.3881,0.3884,0.3894,0.3883,0.3896,0.3896,0.3895,0.3824,0.3818,0.3905,0.3905,0.3905,0.3905,0.3905,0.3905,0.3951,0.3971,0.3958,0.3975,0.3966,0.3976,0.3975,0.3973,0.3968,0.3978,0.3982,0.3971,0.3962,0.3964,0.3968,0.3963,0.3966,0.3983,0.3975,0.3909,0.39,0.389,0.3884,0.3984,0.3984,0.4045,0.4045,0.4046]}]]